This demonstration page uses our WeatherBlox Daily Observations layout. Learn more.

Left ArrowRight Arrow

41.86663, -103.66717

Hourly Observations for August 16, 2018

Temp ( °F °C ) Dew Point ( °F °C ) Humidity (%) Winds ( mph kmh ) Pressure ( in mb ) Visibility ( mi km ) Precip ( " mm )
12:53 am 00:53 Clear 60 15.6 59 15 96 96 E 3 6 29.96 1015 10 16 0.00 0.00
1:53 am 01:53 Clear 58 14.4 58 14.4 100 100 Calm 29.96 1015 10 16 0.00 0.00
2:53 am 02:53 Clear 56 13.3 56 13.3 100 100 NNW 5 7 29.96 1015 10 16 0.00 0.00
3:53 am 03:53 Clear 54 12.2 54 12.2 100 100 WNW 3 6 29.97 1015 9 14 0.00 0.00
4:53 am 04:53 Clear 55 12.8 55 12.8 100 100 Calm 29.97 1015 9 14 0.00 0.00
5:53 am 05:53 Clear 53 11.7 53 11.7 100 100 Calm 29.99 1016 10 16 0.00 0.00
6:16 am 06:16 Mostly Sunny 53 11.7 53 11.7 100 100 Calm 30.06 1018 8 13 0.00 0.00
6:42 am 06:42 Partly Cloudy with Mist and Fog 54 12 54 12 100 100 Calm 30.06 1018 2 2 0.00 0.00
6:44 am 06:44 Mostly Cloudy with Mist and Fog 54 12 54 12 100 100 Calm 30.06 1018 1 1 0.00 0.00
6:53 am 06:53 Mostly Cloudy with Fog 53 11.7 53 11.7 100 100 Calm 30.02 1017 0 0 0.00 0.00
7:26 am 07:26 Mostly Cloudy with Mist and Fog 55 13 55 13 100 100 Calm 30.03 1017 2 2 0.00 0.00
7:33 am 07:33 Mostly Cloudy 56 13.3 56 13.3 100 100 Calm 30.03 1017 7 11 0.00 0.00
7:42 am 07:42 Partly Cloudy with Mist and Fog 57 14 57 14 100 100 Calm 30.03 1017 6 10 0.00 0.00
7:51 am 07:51 Mostly Cloudy 57 14 57 14 100 100 Calm 30.03 1017 7 11 0.00 0.00
7:53 am 07:53 Mostly Cloudy 58 14.4 58 14.4 100 100 Calm 30.05 1018 7 11 0.00 0.00
8:31 am 08:31 Partly Cloudy 61 16.1 60 15.6 97 97 WNW 5 7 30.00 1016 7 11 0.00 0.00
8:41 am 08:41 Mostly Cloudy with Mist and Fog 60 15.6 59 15 96 96 NW 5 7 30.00 1016 2 3 0.00 0.00
8:53 am 08:53 Mostly Cloudy with Mist and Fog 60 15.6 60 15.6 100 100 NNW 3 6 30.07 1018 1 2 0.00 0.00
9:05 am 09:05 Cloudy with Mist and Fog 62 16.7 61 16.1 96 96 NW 5 7 30.03 1017 3 5 0.00 0.00
9:28 am 09:28 Partly Cloudy 66 18.9 61 16.1 84 84 VRB 5 7 30.00 1016 8 13 0.00 0.00
9:53 am 09:53 Sunny 68 20 62 16.7 81 81 WSW 3 6 30.07 1018 10 16 0.00 0.00
10:53 am 10:53 Sunny 75 23.9 63 17.2 66 66 VRB 3 6 30.05 1018 10 16 0.00 0.00
11:53 am 11:53 Sunny 82 27.8 57 13.9 42 42 VRB 5 7 30.03 1017 10 16 0.00 0.00
12:53 pm 12:53 Sunny 84 28.9 56 13.3 38 38 VRB 5 7 30.01 1016 10 16 0.00 0.00
1:53 pm 13:53 Sunny 87 30.6 55 12.8 34 34 S 8 13 30.00 1016 10 16 0.00 0.00
2:53 pm 14:53 Sunny 88 31.1 54 12.2 31 31 SW 8 13 29.99 1016 10 16 0.00 0.00
3:53 pm 15:53 Sunny 88 31.1 53 11.7 30 30 WSW 6 9 29.99 1016 10 16 0.00 0.00
4:53 pm 16:53 Sunny 88 31.1 53 11.7 30 30 VRB 5 7 29.98 1015 10 16 0.00 0.00
5:53 pm 17:53 Sunny 86 30 60 15.6 42 42 E 9 15 29.99 1016 10 16 0.00 0.00
6:53 pm 18:53 Sunny 81 27.2 63 17.2 54 54 E 7 11 30.01 1016 10 16 0.00 0.00
7:53 pm 19:53 Sunny 73 22.8 57 13.9 57 57 ENE 8 13 30.04 1017 10 16 0.00 0.00
8:53 pm 20:53 Clear 69 20.6 55 12.8 61 61 E 8 13 30.08 1019 10 16 0.00 0.00
9:53 pm 21:53 Clear 67 19.4 55 12.8 66 66 E 5 7 30.08 1019 10 16 0.00 0.00
10:53 pm 22:53 Clear 64 17.8 56 13.3 75 75 Calm 30.09 1019 10 16 0.00 0.00
11:53 pm 23:53 Clear 62 16.7 55 12.8 78 78 E 7 11 30.07 1018 10 16 0.00 0.00

Powered by AerisWeather